Location: Unspecified
(0.0000°N, 0.0000°E)
Time: 13:13:46
(UTC+01:00)

BREEZE-M DEB (TANK) - Visible Passes

Search period start: 23 March 2017 00:00
Search period end: 02 April 2017 01:00
Orbit: 320 x 16334 km, 49.5° (Epoch: 21 March)

Date Brightness Start Highest point End Pass type
(mag) Time Alt. Az. Time Alt. Az. Time Alt. Az.
23 Mar 7.9 07:55:59 10° SSW 08:11:17 13° S 08:19:07 10° SSE visible
23 Mar 7.7 19:08:53 10° NE 19:29:30 11° ENE 19:49:06 11° E visible
23 Mar 8.4 23:58:22 10° NW 01:31:48 62° SSW 03:31:18 10° SSE visible
24 Mar 7.7 19:35:13 10° NNE 20:12:46 24° E 22:05:13 10° SE visible
25 Mar 8.6 00:41:18 10° NW 02:09:12 53° SW 04:15:09 10° SSE visible
25 Mar 7.8 20:12:28 10° N 20:52:45 37° ENE 23:08:05 10° SE visible
26 Mar 8.7 01:26:11 10° WNW 03:45:40 41° WSW 05:58:51 10° SSE visible
26 Mar 7.9 21:51:25 10° N 22:32:43 52° ENE 01:01:17 10° SE visible
27 Mar 8.8 03:14:58 10° WNW 04:21:51 29° WSW 06:42:47 10° SSE visible
27 Mar 8.0 22:31:11 10° NNW 23:14:02 68° ENE 01:50:15 10° SSE visible
28 Mar 8.5 04:14:19 10° W 05:17:34 18° WSW 07:27:32 10° SSE visible
28 Mar 8.2 23:11:32 10° NNW 23:57:17 85° ENE 02:37:00 10° SSE visible
29 Mar 8.2 07:20:05 10° SW 08:00:28 14° S 08:13:24 10° SSE visible
29 Mar 8.3 23:52:36 10° NW 00:42:29 79° WSW 03:22:25 10° SSE visible
30 Mar 7.8 08:29:49 10° SSW 08:50:22 15° S 08:58:54 10° SE visible
30 Mar 7.7 19:35:54 10° NE 20:02:13 15° ENE 21:17:17 10° ESE visible
31 Mar 8.5 00:34:32 10° NW 01:29:23 64° WSW 04:07:06 10° SSE visible
31 Mar 7.7 20:09:31 10° NNE 20:43:27 28° ENE 22:43:14 10° SE visible
01 Apr 8.6 01:17:50 10° WNW 02:17:37 50° WSW 04:51:28 10° SSE visible
01 Apr 7.8 20:47:26 10° N 21:23:11 42° ENE 23:43:24 10° SE visible
